This is the latest recevied weather packets stored in our database for station/object HOTSPR-3. If no packets are shown the sender has not sent any weather packets the latest 10 day(s).
| Time | Temp. | Humidity | Pressure | Rain* | Wind** | Luminosity | Snow |
|---|---|---|---|---|---|---|---|
| 1777538643 | 13.33° C | 88% | 1012.8 hPa | 0.25 mm | - | - | - |
| 1777538343 | 13.33° C | 88% | 1012.7 hPa | 0.25 mm | - | - | - |
| 1777538043 | 13.33° C | 88% | 1012.6 hPa | 0.25 mm | - | - | - |
| 1777537142 | 13.33° C | 88% | 1012.5 hPa | 0.25 mm | - | - | - |
| 1777536842 | 13.33° C | 81% | 1012.5 hPa | 0.25 mm | - | - | - |
| 1777536541 | 13.33° C | 89% | 1012.5 hPa | 0.25 mm | - | - | - |
| 1777536242 | 13.33° C | 88% | 1012.5 hPa | 0.25 mm | - | - | - |
| 1777535041 | 13.89° C | 89% | 1012.5 hPa | 0.25 mm | - | - | - |
| 1777534440 | 13.89° C | 88% | 1012.6 hPa | 0.25 mm | - | - | - |
| 1777533840 | 13.89° C | 89% | 1011.8 hPa | 0.25 mm | - | - | - |
| 1777533240 | 13.89° C | 89% | 1012.2 hPa | 0.25 mm | - | - | - |
| 1777532639 | 13.89° C | 89% | 1012.4 hPa | 0.25 mm | - | - | - |
| 1777532038 | 14.44° C | 89% | 1012.8 hPa | 0.25 mm | - | - | - |
| 1777530838 | 14.44° C | 89% | 1012.8 hPa | 0.25 mm | - | - | - |
| 1777530538 | 14.44° C | 90% | 1012.9 hPa | 0.25 mm | - | - | - |
| 1777530238 | 14.44° C | 90% | 1012.9 hPa | 0.25 mm | - | - | - |
| 1777529937 | 14.44° C | 90% | 1013.1 hPa | 0.25 mm | - | - | - |
| 1777529637 | 14.44° C | 91% | 1013 hPa | 0.25 mm | - | - | - |
| 1777529337 | 14.44° C | 91% | 1013.1 hPa | 0.25 mm | - | - | - |
| 1777528737 | 15° C | 92% | 1013.1 hPa | 0.25 mm | - | - | - |
| 1777528437 | 15° C | 92% | 1012.8 hPa | 0.25 mm | - | - | - |
| 1777528137 | 15° C | 92% | 1013.1 hPa | 0.25 mm | - | - | - |
| 1777527836 | 15° C | 93% | 1013 hPa | 0.25 mm | - | - | - |
| 1777527236 | 15° C | 95% | 1013.1 hPa | 0.25 mm | - | - | - |
| 1777526636 | 15° C | 96% | 1013.2 hPa | 0.25 mm | - | - | - |
* Rain since midnight (hover to see other rain measurements)
** Current wind speed in m/s (hover to see current wind gust speed)